Regional Weather Roundup
Issued by NWS Jackson, KY

Home | Current Version | Previous Version | Graphics & Text | Print | Product List | Glossary On
Versions: 1 2 3 4 5 6 7 8 9 10 11 12 13 14 15 16 17 18 19 20 21 22 23 24 25 26 27
000
ASUS43 KJKL 242210
RWRJKL

EAST KENTUCKY HOURLY WEATHER ROUNDUP
NATIONAL WEATHER SERVICE JACKSON KY
600 PM EDT MON APR 24 2017

NOTE: "FAIR" INDICATES FEW OR NO CLOUDS BELOW 12,000 FEET WITH
NO SIGNIFICANT WEATHER AND/OR OBSTRUCTIONS TO VISIBILITY.

* THESE REPORTS ARE NOT UNDER NWS QUALITY CONTROL AND MAY NOT
  REPORT WEATHER SUCH AS PRECIPITATION AND FOG.

KYZ079-080-083-085-087-088-110-112-115-119-120-242300
...EASTERN KENTUCKY...

CITY           SKY/WX    TMP DP  RH WIND       PRES   REMARKS
JACKSON        PTSUNNY   63  52  67 VRB5      29.80F
LONDON         CLOUDY    65  52  62 VRB6      29.78S
SOMERSET*      CLOUDY    64  52  63 E3        29.79S
MONTICELLO*    CLOUDY    66  55  67 N14       29.80S
WILLIAMSBURG*  MOCLDY    64  55  72 N5        29.78S
MIDDLESBORO*   CLOUDY    67  55  63 N3        29.77S
HARLAN APT*    CLOUDY    63  52  67 CALM      29.79R
PIKE CO APT*   CLOUDY    61  51  70 E8        29.84S
$$

KYZ035-036-041-042-044-050-067-078-099-242300
...CENTRAL KENTUCKY...

CITY           SKY/WX    TMP DP  RH WIND       PRES   REMARKS
MT STERLING*   CLOUDY    63  52  67 E9        29.83S
FLEMING/MASON* CLOUDY    63  52  67 E12G17    29.84F
DANVILLE*      CLOUDY    64  54  68 NE6       29.80S
LEXINGTON      PTSUNNY   66  50  56 E12       29.80F
FRANKFORT      CLOUDY    68  51  54 E10       29.78F
LOUISVILLE     PTSUNNY   74  49  41 E12       29.77S
LEBANON*       CLOUDY    66  54  63 E5        29.79F
GLASGOW*       CLOUDY    67  55  64 N5        29.78S
BOWLING GREEN  CLOUDY    71  55  56 CALM      29.78F
$$

KYZ091>093-OHZ055-061-077-WVZ005-015-034-035-042-242300
...SOUTHERN OHIO/WEST VIRGINIA...

CITY           SKY/WX    TMP DP  RH WIND       PRES   REMARKS
COVINGTON      PTSUNNY   70  52  52 E17       29.80F
COLUMBUS       PTSUNNY   66  50  56 E16G25    29.88F
DAYTON         PTSUNNY   70  51  51 E18G28    29.83F
WILMINGTON     CLOUDY    65  52  62 E12G22    29.84F
HUNTINGTON     CLOUDY    61  52  72 NE10      29.85S
CHARLESTON     CLOUDY    62  51  67 N6        29.86R
PINEVILLE*     CLOUDY    58  51  76 MISG      29.91R
BECKLEY        CLOUDY    53  49  86 VRB5      29.88R
BLUEFIELD      CLOUDY    50  46  86 E10G16    29.87R
LOGAN CO APT*  CLOUDY    61  50  67 E9        29.84F
$$

VAZ002-007-008-TNZ017-027-036-066-071-242300
...SOUTHWEST VIRGINIA/EAST TENNESSEE...

CITY           SKY/WX    TMP DP  RH WIND       PRES   REMARKS
WISE*          CLOUDY    55  55 100 NE6       29.85R
JONESVILLE*    CLOUDY    64  54  68 CALM      29.80R
ABINGDON*      CLOUDY    56  52  85 E9        29.84S
BRISTOL        CLOUDY    60  51  72 NE10      29.81R
MORRISTOWN*    CLOUDY    64  55  72 E7G14     29.77R
SEVIERVILLE*   CLOUDY    63  54  72 E9        29.76R
KNOXVILLE      PTSUNNY   67  54  63 NE8       29.74R
LAFOLLETTE*    MOCLDY    68  55  64 NE6       29.78R
OAK RIDGE      PTSUNNY   71  53  52 VRB3      29.75R
CROSSVILLE     CLOUDY    61  54  77 W8        29.79S
NASHVILLE      CLOUDY    67  54  63 NE7       29.80S
$$

...KEY TO REMARKS...
VSB - VISIBILITY IN MILES
WCI - WIND CHILL INDEX
HX  - HEAT INDEX

$$




USA.gov is the U.S. government's official web portal to all federal, state and local government web resources and services.